{"data":{"norad_id":64725,"intl_designator":"2025-144B","name":"STARLINK-34562","alt_names":[],"object_type":"PAYLOAD","status":"ACTIVE","operator":null,"country":"US","launch_date":"2025-07-02","launch_site_code":"AFETR","launch_vehicle":null,"mission":null,"orbit_class":"UNKNOWN","rcs_meters":null,"size_class":null,"mass_kg":null,"dimensions":null,"purposes":["comms"],"wikipedia_slug":null,"has_3d_model":false,"image_url":null,"decayed_at":null,"tle_current":{"epoch":"2026-09-20T12:52:38.635392Z","epoch_age_seconds":124880,"freshness":"FRESH","line1":"1 64725U 25144B   26263.53655828  .00016980  00000+0  51241-3 0  9990","line2":"2 64725  53.1609 355.3067 0001036  76.4354 283.6764 15.34407298 69530","mean_motion":15.34407298,"eccentricity":0.0001036,"inclination_deg":53.1609,"raan_deg":355.3067,"arg_perigee_deg":76.4354,"mean_anomaly_deg":283.6764,"bstar":0.00051241,"rev_number":6953,"period_min":93.847311719447,"perigee_km":461.97284029741,"apogee_km":463.39025790078,"semimajor_km":6840.8185490991,"source":"CELESTRAK","updated_at":"2026-09-21T09:00:35.408751Z"}}}